Find Orbiter SN3

NORAD ID: 56960 Int'l Des: 2023-084 Owner: LAUN Country: US operational
LEOCIRCULARRETROGRADESSO

Live Position

Loading 3D Globe...

About Orbiter SN3

Description loading...

Upcoming Passes

Passes for default location (London). Set your location on the main map for personalized predictions.

Altitude History

Loading altitude history...

Two-Line Element Set

1 56960U 23084AE 26106.29530854 .00005310 00000-0 16547-3 0 9999
2 56960 97.6171 245.1202 0008223 182.9178 177.2018 15.33683903158007
Epoch: Apr 16, 2026 • Age: 10 hours

Current Status

Altitude 479.0 km
Velocity 7.63 km/s
Sub-Earth Point 74.05°N, 120.78°E
Launch Date Jun 12, 2023
Age 2.8 years
Type other

Technical Details

Classification Payload
Mass 200.00 kg
Dry Mass 150.00 kg
Total Mass 223.00 kg
Length 0.30 m
Diameter 1.00 m
Span 1.00 m
Shape Oct cyl
Manufacturer LAUN
Bus Type LaOrb1
Phase Status In Orbit
Owner/State LAUN/US

Most Searched